Location: Ottawa
(45.4167°N, 75.7000°W)
Time: 00:05:22
(UTC-04:00)

ISS - Pass Details

Date: 14 October 2017
Orbit: 401 x 408 km, 51.6° (Epoch: 18 October)

Event Time Altitude Azimuth Distance (km) Brightness Sun altitude
Rises 19:25:28 0° 294° (WNW) 2,325 1.3 -12.5°
Reaches altitude 10° 19:27:39 10° 285° (WNW) 1,463 0.3 -12.9°
Maximum altitude 19:30:41 35° 218° (SW) 679 -2.4 -13.4°
Enters shadow 19:33:40 10° 151° (SSE) 1,450 -1.3 -13.9°
